When you browse on this site, cookies collect data to enhance your experience and personalize the content and advertising you see.
Visit our Privacy Policy to learn more. By continuing to use the site, you agree to this use of cookies and data.
  • In Lithuania
  • List of Countries
  • For 7 days
  • Water Temperature
  • Satellite Maps
  • Weather Map
  • Weather Widgets
  • user-avatar
    Login

    Hourly Weather Mendoza

    Today, 12 December, Wednesday

    Time Temperature Precipitation Wind Pressure Humidity
    00:00 +25°C° 0.6 mm 5 mps 699 mmHg 59%
    01:00 +23°C° 0 mm 6 mps 699 mmHg 62%
    02:00 +22°C° 0.1 mm 6 mps 699 mmHg 59%
    03:00 +22°C° 0.1 mm 6 mps 699 mmHg 56%
    04:00 +21°C° 0.1 mm 6 mps 699 mmHg 53%
    05:00 +21°C° 0 mm 5 mps 699 mmHg 49%
    06:00 +21°C° 0 mm 5 mps 699 mmHg 45%
    07:00 +21°C° 0 mm 5 mps 699 mmHg 42%
    08:00 +22°C° 0 mm 5 mps 699 mmHg 39%
    09:00 +23°C° 0 mm 5 mps 699 mmHg 36%
    10:00 +25°C° 0 mm 4 mps 698 mmHg 33%
    11:00 +26°C° 0 mm 4 mps 698 mmHg 33%
    12:00 +27°C° 0 mm 4 mps 697 mmHg 32%
    13:00 +28°C° 0 mm 3 mps 696 mmHg 31%
    14:00 +28°C° 0 mm 3 mps 696 mmHg 31%
    15:00 +29°C° 0 mm 3 mps 695 mmHg 30%
    16:00 +29°C° 0 mm 3 mps 695 mmHg 30%
    17:00 +28°C° 0 mm 3 mps 695 mmHg 32%
    18:00 +28°C° 0 mm 3 mps 695 mmHg 35%
    19:00 +27°C° 0 mm 3 mps 695 mmHg 37%
    20:00 +26°C° 0 mm 3 mps 695 mmHg 37%
    21:00 +26°C° 0 mm 3 mps 695 mmHg 38%
    22:00 +26°C° 0 mm 3 mps 695 mmHg 38%
    23:00 +25°C° 0.1 mm 3 mps 695 mmHg 39%

    Tomorrow, 13 December, Thursday

    Time Temperature Precipitation Wind Pressure Humidity
    00:00 +25°C° 0.1 mm 2 mps 694 mmHg 40%
    01:00 +24°C° 0.1 mm 2 mps 694 mmHg 41%
    02:00 +24°C° 0 mm 2 mps 693 mmHg 39%
    03:00 +23°C° 0 mm 2 mps 693 mmHg 37%
    04:00 +23°C° 0 mm 2 mps 693 mmHg 36%
    05:00 +24°C° 0 mm 2 mps 693 mmHg 34%
    06:00 +26°C° 0 mm 3 mps 693 mmHg 32%
    07:00 +27°C° 0 mm 3 mps 693 mmHg 30%
    08:00 +29°C° 0 mm 3 mps 693 mmHg 28%
    09:00 +30°C° 0 mm 3 mps 693 mmHg 26%
    10:00 +32°C° 0 mm 4 mps 693 mmHg 24%
    11:00 +34°C° 0 mm 4 mps 693 mmHg 21%
    12:00 +35°C° 0 mm 5 mps 693 mmHg 18%
    13:00 +36°C° 0 mm 5 mps 693 mmHg 15%
    14:00 +36°C° 0 mm 6 mps 692 mmHg 14%
    15:00 +38°C° 0 mm 6 mps 692 mmHg 13%
    16:00 +38°C° 0 mm 6 mps 692 mmHg 12%
    17:00 +35°C° 0 mm 6 mps 693 mmHg 13%
    18:00 +34°C° 0 mm 7 mps 693 mmHg 14%
    19:00 +32°C° 0 mm 7 mps 693 mmHg 16%
    20:00 +30°C° 0.3 mm 6 mps 694 mmHg 20%
    21:00 +28°C° 0.3 mm 6 mps 694 mmHg 24%
    22:00 +27°C° 0.3 mm 5 mps 695 mmHg 27%
    23:00 +26°C° 0.5 mm 5 mps 694 mmHg 31%

    Day after tomorrow, 14 December, Friday

    Time Temperature Precipitation Wind Pressure Humidity
    00:00 +26°C° 0.5 mm 4 mps 694 mmHg 35%
    01:00 +25°C° 0.5 mm 4 mps 694 mmHg 39%
    02:00 +23°C° 0.2 mm 4 mps 695 mmHg 42%
    03:00 +23°C° 0.2 mm 5 mps 695 mmHg 45%
    04:00 +22°C° 0.2 mm 5 mps 695 mmHg 48%
    05:00 +22°C° 0 mm 6 mps 696 mmHg 45%
    06:00 +22°C° 0 mm 6 mps 696 mmHg 43%
    07:00 +22°C° 0 mm 7 mps 697 mmHg 41%
    08:00 +23°C° 0 mm 6 mps 697 mmHg 37%
    09:00 +24°C° 0 mm 6 mps 697 mmHg 33%
    10:00 +24°C° 0 mm 6 mps 697 mmHg 29%
    11:00 +26°C° 0 mm 6 mps 697 mmHg 29%
    12:00 +27°C° 0 mm 6 mps 697 mmHg 28%
    13:00 +28°C° 0 mm 5 mps 697 mmHg 27%
    14:00 +28°C° 0 mm 5 mps 697 mmHg 27%
    15:00 +28°C° 0 mm 5 mps 697 mmHg 27%
    16:00 +28°C° 0 mm 5 mps 697 mmHg 26%
    17:00 +27°C° 0 mm 4 mps 698 mmHg 28%
    18:00 +26°C° 0 mm 3 mps 698 mmHg 29%
    19:00 +25°C° 0 mm 3 mps 699 mmHg 30%
    20:00 +25°C° 0 mm 3 mps 699 mmHg 31%
    21:00 +24°C° 0 mm 3 mps 700 mmHg 31%
    22:00 +23°C° 0 mm 2 mps 700 mmHg 32%
    23:00 +23°C° 0 mm 2 mps 700 mmHg 33%

    15 December, Saturday

    Time Temperature Precipitation Wind Pressure Humidity
    00:00 +21°C° 0 mm 2 mps 699 mmHg 34%
    01:00 +20°C° 0 mm 2 mps 698 mmHg 35%
    02:00 +20°C° 0 mm 2 mps 698 mmHg 36%
    03:00 +19°C° 0 mm 2 mps 698 mmHg 37%
    04:00 +19°C° 0 mm 2 mps 698 mmHg 38%
    05:00 +20°C° 0 mm 2 mps 698 mmHg 35%
    06:00 +21°C° 0 mm 2 mps 699 mmHg 32%
    07:00 +23°C° 0 mm 2 mps 699 mmHg 30%
    08:00 +25°C° 0 mm 3 mps 699 mmHg 27%
    09:00 +26°C° 0 mm 3 mps 699 mmHg 25%
    10:00 +28°C° 0 mm 3 mps 699 mmHg 23%
    11:00 +29°C° 0 mm 3 mps 698 mmHg 23%
    12:00 +30°C° 0 mm 3 mps 697 mmHg 23%
    13:00 +32°C° 0 mm 4 mps 697 mmHg 22%
    14:00 +32°C° 0 mm 4 mps 697 mmHg 22%
    15:00 +31°C° 0 mm 3 mps 696 mmHg 22%
    16:00 +33°C° 0 mm 3 mps 696 mmHg 22%
    17:00 +31°C° 0.1 mm 3 mps 697 mmHg 24%
    18:00 +30°C° 0.1 mm 3 mps 697 mmHg 27%
    19:00 +29°C° 0.1 mm 2 mps 697 mmHg 29%
    20:00 +29°C° 0.1 mm 2 mps 697 mmHg 30%
    21:00 +28°C° 0.1 mm 2 mps 698 mmHg 32%
    22:00 +28°C° 0.1 mm 2 mps 698 mmHg 34%
    23:00 +27°C° 0 mm 2 mps 698 mmHg 34%

    16 December, Sunday

    Time Temperature Precipitation Wind Pressure Humidity
    00:00 +27°C° 0 mm 2 mps 697 mmHg 35%
    01:00 +26°C° 0 mm 2 mps 697 mmHg 35%
    02:00 +25°C° 0 mm 2 mps 697 mmHg 35%
    03:00 +25°C° 0 mm 2 mps 697 mmHg 35%
    04:00 +24°C° 0 mm 2 mps 697 mmHg 35%
    05:00 +26°C° 0 mm 2 mps 697 mmHg 34%
    06:00 +27°C° 0 mm 2 mps 698 mmHg 32%
    07:00 +28°C° 0 mm 2 mps 698 mmHg 30%
    08:00 +29°C° 0 mm 2 mps 698 mmHg 28%
    09:00 +31°C° 0 mm 2 mps 698 mmHg 26%
    10:00 +32°C° 0 mm 2 mps 698 mmHg 25%
    11:00 +34°C° 0 mm 2 mps 698 mmHg 24%
    12:00 +35°C° 0 mm 3 mps 698 mmHg 22%
    13:00 +36°C° 0 mm 3 mps 697 mmHg 21%
    14:00 +36°C° 0 mm 3 mps 697 mmHg 21%
    15:00 +36°C° 0 mm 3 mps 697 mmHg 20%
    16:00 +36°C° 0 mm 3 mps 696 mmHg 20%
    17:00 +35°C° 0 mm 3 mps 697 mmHg 22%
    18:00 +34°C° 0 mm 2 mps 697 mmHg 24%
    19:00 +32°C° 0 mm 2 mps 697 mmHg 27%
    20:00 +32°C° 0 mm 2 mps 697 mmHg 29%
    21:00 +31°C° 0 mm 1 mps 698 mmHg 31%
    22:00 +30°C° 0 mm 1 mps 698 mmHg 33%
    23:00 +30°C° 0 mm 1 mps 698 mmHg 33%

    17 December, Monday

    Time Temperature Precipitation Wind Pressure Humidity
    00:00 +29°C° 0 mm 2 mps 698 mmHg 32%
    01:00 +29°C° 0 mm 2 mps 697 mmHg 31%
    02:00 +27°C° 0.1 mm 4 mps 698 mmHg 31%
    03:00 +26°C° 0.1 mm 6 mps 698 mmHg 30%
    04:00 +24°C° 0.1 mm 8 mps 698 mmHg 30%
    05:00 +24°C° 0 mm 7 mps 699 mmHg 28%
    06:00 +24°C° 0 mm 7 mps 700 mmHg 27%
    07:00 +26°C° 0 mm 6 mps 700 mmHg 25%
    08:00 +27°C° 0 mm 6 mps 700 mmHg 24%
    09:00 +27°C° 0 mm 6 mps 700 mmHg 23%
    10:00 +28°C° 0 mm 5 mps 700 mmHg 22%
    11:00 +29°C° 0 mm 5 mps 700 mmHg 22%
    12:00 +30°C° 0 mm 5 mps 700 mmHg 21%
    13:00 +32°C° 0 mm 5 mps 699 mmHg 21%
    14:00 +32°C° 0 mm 4 mps 699 mmHg 21%
    15:00 +32°C° 0 mm 4 mps 699 mmHg 21%
    16:00 +33°C° 0 mm 4 mps 699 mmHg 21%
    17:00 +32°C° 0 mm 4 mps 699 mmHg 23%
    18:00 +30°C° 0 mm 3 mps 700 mmHg 24%
    19:00 +29°C° 0 mm 3 mps 700 mmHg 26%
    20:00 +28°C° 0 mm 3 mps 700 mmHg 29%
    21:00 +27°C° 0 mm 3 mps 701 mmHg 32%
    22:00 +27°C° 0 mm 3 mps 701 mmHg 35%
    23:00 +26°C° 0 mm 3 mps 701 mmHg 39%
    Show more